,,Stat6,,Stat2,,Stat8,,Stat9,,Stat10,,Wind1,,Wind1,
time,status,PA1M_AVG,status,PR1M_SUM,status,RH1M_AVG,status,SR1M_AVG,status,TA1M_AVG,status,W1dAve1m,status,W1sAve1m,
2007-04-11, 00:00:00,VALID,918.774,VALID,0,VALID,100,VALID,-0.0509425,VALID,21.3712,VALID,306,VALID,0.129492,
2007-04-11, 00:01:00,VALID,918.775,VALID,0,VALID,100,VALID,-0.0169808,VALID,21.3804,VALID,306,VALID,0,
2007-04-11, 00:02:00,VALID,918.771,VALID,0,VALID,100,VALID,-0.0169808,VALID,21.3904,VALID,306,VALID,0,
2007-04-11, 00:03:00,VALID,918.759,VALID,0,VALID,100,VALID,-0.0339617,VALID,21.3739,VALID,306,VALID,0,
2007-04-11, 00:04:00,VALID,918.754,VALID,0,VALID,100,VALID,-0.0509425,VALID,21.3742,VALID,306,VALID,0,
2007-04-11, 00:05:00,VALID,918.727,VALID,0,VALID,100,VALID,-0.0509425,VALID,21.3647,VALID,306,VALID,0,
2007-04-11, 00:06:00,VALID,918.699,VALID,0,VALID,100,VALID,-0.0169808,VALID,21.3674,VALID,306,VALID,0,
2007-04-11, 00:07:00,VALID,918.685,VALID,0,VALID,100,VALID,-0.0509425,VALID,21.3577,VALID,306,VALID,0,
2007-04-11, 00:08:00,VALID,918.669,VALID,0,VALID,100,VALID,-0.0339617,VALID,21.3615,VALID,306,VALID,0,
2007-04-11, 00:09:00,VALID,918.652,VALID,0,VALID,100,VALID,-0.0679233,VALID,21.3774,VALID,306,VALID,0.00355114,
2007-04-11, 00:10:00,VALID,918.637,VALID,0,VALID,100,VALID,-0.0339617,VALID,21.3939,VALID,312,VALID,0.159801,
2007-04-11, 00:11:00,VALID,918.648,VALID,0,VALID,100,VALID,-0.0509425,VALID,21.4072,VALID,317,VALID,0,
2007-04-11, 00:12:00,VALID,918.63,VALID,0,VALID,100,VALID,-0.0679233,VALID,21.4361,VALID,317,VALID,0,
2007-04-11, 00:13:00,VALID,918.628,VALID,0,VALID,100,VALID,0,VALID,21.4361,VALID,317,VALID,0,
2007-04-11, 00:14:00,VALID,918.626,VALID,0,VALID,100,VALID,-0.0339617,VALID,21.4261,VALID,317,VALID,0,
2007-04-11, 00:15:00,VALID,918.605,VALID,0,VALID,100,VALID,-0.0509425,VALID,21.4462,VALID,317,VALID,0,
2007-04-11, 00:16:00,VALID,918.579,VALID,0,VALID,100,VALID,-0.0339617,VALID,21.4686,VALID,317,VALID,0,
2007-04-11, 00:17:00,VALID,918.567,VALID,0,VALID,100,VALID,0,VALID,21.4656,VALID,317,VALID,0,
2007-04-11, 00:18:00,VALID,918.542,VALID,0,VALID,100,VALID,-0.0169808,VALID,21.4388,VALID,317,VALID,0,
2007-04-11, 00:19:00,VALID,918.523,VALID,0,VALID,100,VALID,-0.0509425,VALID,21.4499,VALID,317,VALID,0.030506,
2007-04-11, 00:20:00,VALID,918.521,VALID,0,VALID,100,VALID,-0.0509425,VALID,21.4237,VALID,317,VALID,0,
2007-04-11, 00:21:00,VALID,918.516,VALID,0.2,VALID,100,VALID,-0.0679233,VALID,21.4169,VALID,317,VALID,0.0125363,
2007-04-11, 00:22:00,VALID,918.502,VALID,0,VALID,100,VALID,-0.0509425,VALID,21.4594,VALID,317,VALID,0.0520241,
2007-04-11, 00:23:00,VALID,918.511,VALID,0,VALID,100,VALID,-0.0849042,VALID,21.4656,VALID,348,VALID,0.321801,
2007-04-11, 00:24:00,VALID,918.505,VALID,0.2,VALID,100,VALID,-0.0169808,VALID,21.4692,VALID,27,VALID,0.937686,
2007-04-11, 00:25:00,VALID,918.506,VALID,0.4,VALID,100,VALID,-0.0339617,VALID,21.4786,VALID,36,VALID,0.603819,
2007-04-11, 00:26:00,VALID,918.516,VALID,0,VALID,100,VALID,-0.0509425,VALID,21.4727,VALID,41,VALID,0.38899,
2007-04-11, 00:27:00,VALID,918.504,VALID,0,VALID,100,VALID,-0.0679233,VALID,21.4624,VALID,41,VALID,0.218945,
2007-04-11, 00:28:00,VALID,918.501,VALID,0.2,VALID,100,VALID,-0.0849042,VALID,21.4857,VALID,41,VALID,0,
2007-04-11, 00:29:00,VALID,918.481,VALID,0,VALID,100,VALID,-0.0509425,VALID,21.4821,VALID,41,VALID,0,
2007-04-11, 00:30:00,VALID,918.453,VALID,0,VALID,100,VALID,-0.0339617,VALID,21.4727,VALID,41,VALID,0,
2007-04-11, 00:31:00,VALID,918.431,VALID,0,VALID,100,VALID,-0.118866,VALID,21.4632,VALID,41,VALID,0,
2007-04-11, 00:32:00,VALID,918.398,VALID,0,VALID,100,VALID,-0.0849042,VALID,21.4302,VALID,41,VALID,0,
2007-04-11, 00:33:00,VALID,918.351,VALID,0,VALID,100,VALID,-0.0509425,VALID,21.3945,VALID,30,VALID,0.0974507,
2007-04-11, 00:34:00,VALID,918.328,VALID,0,VALID,100,VALID,-0.0679233,VALID,21.3458,VALID,26,VALID,0.238467,
2007-04-11, 00:35:00,VALID,918.292,VALID,0,VALID,100,VALID,-0.0509425,VALID,21.3228,VALID,24,VALID,0.200149,
2007-04-11, 00:36:00,VALID,918.266,VALID,0,VALID,100,VALID,-0.101885,VALID,21.3231,VALID,21,VALID,0.285528,
2007-04-11, 00:37:00,VALID,918.252,VALID,0,VALID,100,VALID,-0.0509425,VALID,21.3095,VALID,264,VALID,0.487749,
2007-04-11, 00:38:00,VALID,918.256,VALID,0,VALID,100,VALID,-0.0339617,VALID,21.3101,VALID,242,VALID,0.236852,
2007-04-11, 00:39:00,VALID,918.241,VALID,0,VALID,100,VALID,-0.0509425,VALID,21.3268,VALID,235,VALID,0.229833,
2007-04-11, 00:40:00,VALID,918.224,VALID,0,VALID,100,VALID,-0.0509425,VALID,21.3223,VALID,234,VALID,0,
2007-04-11, 00:41:00,VALID,918.227,VALID,0,VALID,100,VALID,-0.0849042,VALID,21.3258,VALID,234,VALID,0.0334821,
2007-04-11, 00:42:00,VALID,918.204,VALID,0,VALID,100,VALID,-0.0849042,VALID,21.3293,VALID,236,VALID,0.0708576,
2007-04-11, 00:43:00,VALID,918.192,VALID,0,VALID,100,VALID,-0.0679233,VALID,21.3355,VALID,236,VALID,0,
2007-04-11, 00:44:00,VALID,918.179,VALID,0,VALID,100,VALID,0.0339617,VALID,21.3636,VALID,236,VALID,0,
2007-04-11, 00:45:00,VALID,918.141,VALID,0,VALID,100,VALID,0.0339617,VALID,21.3961,VALID,237,VALID,0.0529119,
2007-04-11, 00:46:00,VALID,918.124,VALID,0,VALID,100,VALID,0,VALID,21.4094,VALID,237,VALID,0.0265997,
2007-04-11, 00:47:00,VALID,918.096,VALID,0,VALID,100,VALID,0.0169808,VALID,21.4418,VALID,254,VALID,0.238095,
2007-04-11, 00:48:00,VALID,918.08,VALID,0,VALID,100,VALID,0.0169808,VALID,21.4215,VALID,308,VALID,0.479514,
2007-04-11, 00:49:00,VALID,918.064,VALID,0,VALID,100,VALID,0.0169808,VALID,21.3994,VALID,308,VALID,0.18423,
2007-04-11, 00:50:00,VALID,918.061,VALID,0,VALID,100,VALID,0.0169808,VALID,21.3966,VALID,308,VALID,0.15532,
2007-04-11, 00:51:00,VALID,918.041,VALID,0,VALID,100,VALID,0.0169808,VALID,21.4029,VALID,346,VALID,0.320871,
2007-04-11, 00:52:00,VALID,918.039,VALID,0,VALID,100,VALID,0,VALID,21.3793,VALID,357,VALID,0.0291667,
2007-04-11, 00:53:00,VALID,918.013,VALID,0,VALID,100,VALID,0,VALID,21.3666,VALID,357,VALID,0.0046875,
2007-04-11, 00:54:00,VALID,918.018,VALID,0,VALID,100,VALID,-0.0169808,VALID,21.3772,VALID,9,VALID,0.180689,
2007-04-11, 00:55:00,VALID,918.019,VALID,0,VALID,100,VALID,0,VALID,21.3444,VALID,60,VALID,0.466602,
2007-04-11, 00:56:00,VALID,918.016,VALID,0,VALID,100,VALID,0,VALID,21.3317,VALID,61,VALID,0.49082,
2007-04-11, 00:57:00,VALID,918.002,VALID,0,VALID,100,VALID,0.0169808,VALID,21.3507,VALID,61,VALID,0.429888,
2007-04-11, 00:58:00,VALID,917.986,VALID,0,VALID,100,VALID,0.0169808,VALID,21.3347,VALID,61,VALID,0.456659,
2007-04-11, 00:59:00,VALID,917.988,VALID,0,VALID,100,VALID,-0.0849042,VALID,21.3168,VALID,60,VALID,0.592076,
2007-04-11, 01:00:00,VALID,917.976,VALID,0,VALID,100,VALID,-0.0849042,VALID,21.3101,VALID,37,VALID,0.599516,
2007-04-11, 01:01:00,VALID,917.978,VALID,0,VALID,100,VALID,-0.101885,VALID,21.3298,VALID,28,VALID,0.740473,
2007-04-11, 01:02:00,VALID,917.962,VALID,0,VALID,100,VALID,-0.0679233,VALID,21.3431,VALID,21,VALID,0.706395,
2007-04-11, 01:03:00,VALID,917.967,VALID,0,VALID,100,VALID,-0.118866,VALID,21.2944,VALID,21,VALID,0.650799,
2007-04-11, 01:04:00,VALID,917.94,VALID,0,VALID,100,VALID,-0.0849042,VALID,21.2874,VALID,35,VALID,0.500558,
2007-04-11, 01:05:00,VALID,917.93,VALID,0,VALID,100,VALID,-0.101885,VALID,21.3496,VALID,35,VALID,0.542333,
2007-04-11, 01:06:00,VALID,917.914,VALID,0,VALID,100,VALID,-0.101885,VALID,21.3003,VALID,32,VALID,0.376906,
2007-04-11, 01:07:00,VALID,917.907,VALID,0,VALID,100,VALID,-0.118866,VALID,21.2909,VALID,31,VALID,0.362233,
2007-04-11, 01:08:00,VALID,917.894,VALID,0,VALID,100,VALID,-0.118866,VALID,21.2879,VALID,31,VALID,0.607337,
2007-04-11, 01:09:00,VALID,917.902,VALID,0,VALID,100,VALID,-0.0849042,VALID,21.3041,VALID,28,VALID,0.5625,
2007-04-11, 01:10:00,VALID,917.89,VALID,0,VALID,100,VALID,-0.101885,VALID,21.3036,VALID,12,VALID,0.615663,
2007-04-11, 01:11:00,VALID,917.893,VALID,0,VALID,100,VALID,-0.101885,VALID,21.2649,VALID,5,VALID,0.931021,
2007-04-11, 01:12:00,VALID,917.881,VALID,0,VALID,100,VALID,-0.101885,VALID,21.2487,VALID,5,VALID,0.698219,
2007-04-11, 01:13:00,VALID,917.877,VALID,0,VALID,100,VALID,-0.0849042,VALID,21.2579,VALID,7,VALID,0.513672,
2007-04-11, 01:14:00,VALID,917.877,VALID,0,VALID,100,VALID,-0.0339617,VALID,21.2863,VALID,38,VALID,0.70957,
2007-04-11, 01:15:00,VALID,917.863,VALID,0,VALID,100,VALID,0,VALID,21.2895,VALID,31,VALID,0.852896,
2007-04-11, 01:16:00,VALID,917.871,VALID,0,VALID,100,VALID,0,VALID,21.2928,VALID,25,VALID,0.796689,
2007-04-11, 01:17:00,VALID,917.863,VALID,0,VALID,100,VALID,0.0339617,VALID,21.3022,VALID,35,VALID,0.873884,
2007-04-11, 01:18:00,VALID,917.862,VALID,0,VALID,100,VALID,0,VALID,21.3185,VALID,44,VALID,0.766211,
2007-04-11, 01:19:00,VALID,917.864,VALID,0,VALID,100,VALID,0,VALID,21.299,VALID,19,VALID,0.695126,
2007-04-11, 01:20:00,VALID,917.871,VALID,0,VALID,100,VALID,0,VALID,21.2338,VALID,9,VALID,0.637277,
2007-04-11, 01:21:00,VALID,917.873,VALID,0,VALID,100,VALID,0.0169808,VALID,21.2246,VALID,357,VALID,0.521076,
2007-04-11, 01:22:00,VALID,917.883,VALID,0,VALID,100,VALID,0,VALID,21.2016,VALID,356,VALID,0.395419,
2007-04-11, 01:23:00,VALID,917.881,VALID,0,VALID,100,VALID,0,VALID,21.1949,VALID,4,VALID,0.0327744,
2007-04-11, 01:24:00,VALID,917.895,VALID,0,VALID,100,VALID,0.0509425,VALID,21.2181,VALID,4,VALID,0.0208939,
2007-04-11, 01:25:00,VALID,917.883,VALID,0,VALID,100,VALID,0.0169808,VALID,21.2078,VALID,4,VALID,0,
2007-04-11, 01:26:00,VALID,917.867,VALID,0,VALID,100,VALID,0,VALID,21.2019,VALID,4,VALID,0.00833333,
2007-04-11, 01:27:00,VALID,917.864,VALID,0,VALID,100,VALID,0,VALID,21.2149,VALID,4,VALID,0.115007,
2007-04-11, 01:28:00,VALID,917.845,VALID,0,VALID,100,VALID,-0.0169808,VALID,21.2021,VALID,4,VALID,0.0772569,
2007-04-11, 01:29:00,VALID,917.847,VALID,0,VALID,100,VALID,-0.101885,VALID,21.2,VALID,4,VALID,0.00976563,
2007-04-11, 01:30:00,VALID,917.824,VALID,0,VALID,100,VALID,-0.118866,VALID,21.2097,VALID,4,VALID,0.267721,
2007-04-11, 01:31:00,VALID,917.819,VALID,0,VALID,100,VALID,-0.101885,VALID,21.2132,VALID,4,VALID,0.313072,
2007-04-11, 01:32:00,VALID,917.802,VALID,0,VALID,100,VALID,-0.101885,VALID,21.2424,VALID,25,VALID,0.687678,
2007-04-11, 01:33:00,VALID,917.795,VALID,0,VALID,100,VALID,-0.101885,VALID,21.2094,VALID,37,VALID,0.660823,
2007-04-11, 01:34:00,VALID,917.79,VALID,0,VALID,100,VALID,-0.101885,VALID,21.2127,VALID,37,VALID,0.542878,
2007-04-11, 01:35:00,VALID,917.791,VALID,0,VALID,100,VALID,-0.101885,VALID,21.2454,VALID,37,VALID,0.41059,
2007-04-11, 01:36:00,VALID,917.776,VALID,0,VALID,100,VALID,-0.101885,VALID,21.2424,VALID,23,VALID,0.363368,
2007-04-11, 01:37:00,VALID,917.761,VALID,0,VALID,100,VALID,-0.101885,VALID,21.2454,VALID,12,VALID,0.221354,
2007-04-11, 01:38:00,VALID,917.75,VALID,0,VALID,100,VALID,-0.0849042,VALID,21.2584,VALID,21,VALID,0.655903,
2007-04-11, 01:39:00,VALID,917.73,VALID,0,VALID,100,VALID,-0.0679233,VALID,21.2251,VALID,16,VALID,0.688715,
2007-04-11, 01:40:00,VALID,917.719,VALID,0,VALID,100,VALID,-0.101885,VALID,21.2067,VALID,17,VALID,0.445676,
2007-04-11, 01:41:00,VALID,917.692,VALID,0.2,VALID,100,VALID,-0.101885,VALID,21.1672,VALID,27,VALID,0.624112,
2007-04-11, 01:42:00,VALID,917.667,VALID,0,VALID,100,VALID,-0.0849042,VALID,21.1375,VALID,28,VALID,0.551897,
2007-04-11, 01:43:00,VALID,917.658,VALID,0,VALID,100,VALID,-0.0679233,VALID,21.1505,VALID,29,VALID,0.399709,
2007-04-11, 01:44:00,VALID,917.645,VALID,0,VALID,100,VALID,0,VALID,21.1472,VALID,29,VALID,0.218192,
2007-04-11, 01:45:00,VALID,917.638,VALID,0,VALID,100,VALID,0,VALID,21.1407,VALID,11,VALID,0.641513,
2007-04-11, 01:46:00,VALID,917.634,VALID,0.2,VALID,100,VALID,-0.0509425,VALID,21.1445,VALID,10,VALID,0.530878,
2007-04-11, 01:47:00,VALID,917.634,VALID,0,VALID,100,VALID,-0.0339617,VALID,21.154,VALID,9,VALID,0.317827,
2007-04-11, 01:48:00,VALID,917.627,VALID,0,VALID,100,VALID,-0.0169808,VALID,21.1957,VALID,9,VALID,0.253997,
2007-04-11, 01:49:00,VALID,917.62,VALID,0,VALID,100,VALID,-0.0169808,VALID,21.2122,VALID,9,VALID,0.220348,
2007-04-11, 01:50:00,VALID,917.608,VALID,0.2,VALID,100,VALID,-0.0339617,VALID,21.1824,VALID,8,VALID,0.368229,
2007-04-11, 01:51:00,VALID,917.594,VALID,0,VALID,100,VALID,-0.0339617,VALID,21.1959,VALID,8,VALID,0.276786,
2007-04-11, 01:52:00,VALID,917.576,VALID,0,VALID,100,VALID,-0.0679233,VALID,21.18,VALID,8,VALID,0.145089,
2007-04-11, 01:53:00,VALID,917.561,VALID,0.2,VALID,100,VALID,-0.0169808,VALID,21.1475,VALID,8,VALID,0,
2007-04-11, 01:54:00,VALID,917.543,VALID,0,VALID,100,VALID,-0.0169808,VALID,21.1505,VALID,8,VALID,0.0688244,
2007-04-11, 01:55:00,VALID,917.532,VALID,0,VALID,100,VALID,-0.0169808,VALID,21.1507,VALID,8,VALID,0.0025436,
2007-04-11, 01:56:00,VALID,917.511,VALID,0,VALID,100,VALID,-0.0169808,VALID,21.1635,VALID,8,VALID,0.269832,
2007-04-11, 01:57:00,VALID,917.497,VALID,0.2,VALID,100,VALID,-0.0339617,VALID,21.1762,VALID,9,VALID,0.431641,
2007-04-11, 01:58:00,VALID,917.472,VALID,0,VALID,100,VALID,-0.0169808,VALID,21.1992,VALID,28,VALID,0.386083,
2007-04-11, 01:59:00,VALID,917.455,VALID,0,VALID,100,VALID,-0.0339617,VALID,21.2057,VALID,28,VALID,0.134028,
2007-04-11, 02:00:00,VALID,917.437,VALID,0,VALID,100,VALID,-0.0169808,VALID,21.2092,VALID,28,VALID,0.376999,
2007-04-11, 02:01:00,VALID,917.403,VALID,0,VALID,100,VALID,-0.0169808,VALID,21.1824,VALID,28,VALID,0.502148,
2007-04-11, 02:02:00,VALID,917.398,VALID,0,VALID,100,VALID,-0.0169808,VALID,21.2051,VALID,28,VALID,0.552557,
2007-04-11, 02:03:00,VALID,917.371,VALID,0,VALID,100,VALID,0,VALID,21.2181,VALID,28,VALID,0.666295,
2007-04-11, 02:04:00,VALID,917.37,VALID,0,VALID,100,VALID,0,VALID,21.2214,VALID,32,VALID,0.771484,
2007-04-11, 02:05:00,VALID,917.36,VALID,0,VALID,100,VALID,-0.0169808,VALID,21.2113,VALID,11,VALID,0.401486,
2007-04-11, 02:06:00,VALID,917.355,VALID,0,VALID,100,VALID,0,VALID,21.1762,VALID,1,VALID,0.11756,
2007-04-11, 02:07:00,VALID,917.348,VALID,0.2,VALID,100,VALID,-0.0339617,VALID,21.1692,VALID,1,VALID,0,
2007-04-11, 02:08:00,VALID,917.34,VALID,0,VALID,100,VALID,0,VALID,21.1727,VALID,1,VALID,0.0362367,
2007-04-11, 02:09:00,VALID,917.335,VALID,0,VALID,100,VALID,0,VALID,21.1564,VALID,1,VALID,0,
2007-04-11, 02:10:00,VALID,917.34,VALID,0,VALID,100,VALID,0,VALID,21.1337,VALID,1,VALID,0,
2007-04-11, 02:11:00,VALID,917.329,VALID,0,VALID,100,VALID,0.0169808,VALID,21.127,VALID,1,VALID,0,
2007-04-11, 02:12:00,VALID,917.33,VALID,0,VALID,100,VALID,0,VALID,21.137,VALID,3,VALID,0.232922,
2007-04-11, 02:13:00,VALID,917.332,VALID,0,VALID,100,VALID,-0.0169808,VALID,21.1629,VALID,16,VALID,0.616279,
2007-04-11, 02:14:00,VALID,917.349,VALID,0,VALID,100,VALID,0,VALID,21.1759,VALID,30,VALID,0.426491,
2007-04-11, 02:15:00,VALID,917.346,VALID,0,VALID,100,VALID,0,VALID,21.1889,VALID,31,VALID,0.310594,
2007-04-11, 02:16:00,VALID,917.346,VALID,0,VALID,100,VALID,-0.0169808,VALID,21.1859,VALID,31,VALID,0.40767,
2007-04-11, 02:17:00,VALID,917.35,VALID,0,VALID,100,VALID,0,VALID,21.1692,VALID,31,VALID,0.447311,
2007-04-11, 02:18:00,VALID,917.347,VALID,0,VALID,100,VALID,0,VALID,21.1532,VALID,32,VALID,0.518111,
2007-04-11, 02:19:00,VALID,917.352,VALID,0,VALID,100,VALID,0,VALID,21.137,VALID,32,VALID,0.287538,
2007-04-11, 02:20:00,VALID,917.358,VALID,0,VALID,100,VALID,-0.0169808,VALID,21.1142,VALID,32,VALID,0.31359,
2007-04-11, 02:21:00,VALID,917.359,VALID,0,VALID,100,VALID,0,VALID,21.085,VALID,32,VALID,0.416667,
2007-04-11, 02:22:00,VALID,917.341,VALID,0.2,VALID,100,VALID,0,VALID,21.0885,VALID,32,VALID,0.253299,
2007-04-11, 02:23:00,VALID,917.34,VALID,0,VALID,100,VALID,0,VALID,21.1015,VALID,32,VALID,0.47904,
2007-04-11, 02:24:00,VALID,917.324,VALID,0,VALID,100,VALID,0,VALID,21.0883,VALID,32,VALID,0.658577,
2007-04-11, 02:25:00,VALID,917.321,VALID,0,VALID,100,VALID,-0.0169808,VALID,21.0885,VALID,32,VALID,0.709961,
2007-04-11, 02:26:00,VALID,917.315,VALID,0,VALID,100,VALID,-0.0169808,VALID,21.0561,VALID,32,VALID,0.665179,
2007-04-11, 02:27:00,VALID,917.322,VALID,0,VALID,100,VALID,0,VALID,21.0331,VALID,32,VALID,0.619606,
2007-04-11, 02:28:00,VALID,917.316,VALID,0,VALID,100,VALID,0,VALID,21.0298,VALID,32,VALID,0.444041,
2007-04-11, 02:29:00,VALID,917.336,VALID,0,VALID,100,VALID,0,VALID,21.0301,VALID,32,VALID,0.62173,
2007-04-11, 02:30:00,VALID,917.326,VALID,0.2,VALID,100,VALID,0.0169808,VALID,21.0036,VALID,32,VALID,0.558854,
2007-04-11, 02:31:00,VALID,917.33,VALID,0,VALID,100,VALID,0,VALID,21.0209,VALID,32,VALID,0.558694,
2007-04-11, 02:32:00,VALID,917.325,VALID,0,VALID,100,VALID,-0.0169808,VALID,21.0077,VALID,31,VALID,0.69308,
2007-04-11, 02:33:00,VALID,917.33,VALID,0,VALID,100,VALID,-0.0509425,VALID,20.9882,VALID,21,VALID,0.759337,
2007-04-11, 02:34:00,VALID,917.337,VALID,0,VALID,100,VALID,-0.0339617,VALID,20.9752,VALID,21,VALID,0.549083,
2007-04-11, 02:35:00,VALID,917.351,VALID,0,VALID,100,VALID,0,VALID,20.9722,VALID,21,VALID,0.605196,
2007-04-11, 02:36:00,VALID,917.352,VALID,0.2,VALID,100,VALID,0,VALID,20.9522,VALID,28,VALID,0.730469,
2007-04-11, 02:37:00,VALID,917.351,VALID,0,VALID,100,VALID,-0.0169808,VALID,20.9619,VALID,36,VALID,0.477273,
2007-04-11, 02:38:00,VALID,917.353,VALID,0,VALID,100,VALID,-0.0509425,VALID,20.9684,VALID,35,VALID,0.37571,
2007-04-11, 02:39:00,VALID,917.347,VALID,0,VALID,100,VALID,0,VALID,20.9749,VALID,40,VALID,0.396984,
2007-04-11, 02:40:00,VALID,917.343,VALID,0,VALID,100,VALID,0,VALID,20.9584,VALID,41,VALID,0.416606,
2007-04-11, 02:41:00,VALID,917.327,VALID,0.2,VALID,100,VALID,-0.0339617,VALID,20.9492,VALID,43,VALID,0.572218,
2007-04-11, 02:42:00,VALID,917.323,VALID,0,VALID,100,VALID,0,VALID,20.9325,VALID,49,VALID,0.479992,
2007-04-11, 02:43:00,VALID,917.317,VALID,0,VALID,100,VALID,-0.0339617,VALID,20.9362,VALID,69,VALID,0.394817,
2007-04-11, 02:44:00,VALID,917.318,VALID,0,VALID,100,VALID,-0.0849042,VALID,20.9403,VALID,75,VALID,0.474564,
2007-04-11, 02:45:00,VALID,917.311,VALID,0.2,VALID,100,VALID,-0.0679233,VALID,20.9373,VALID,72,VALID,0.593178,
2007-04-11, 02:46:00,VALID,917.292,VALID,0,VALID,100,VALID,-0.0509425,VALID,20.9103,VALID,61,VALID,1.03086,
2007-04-11, 02:47:00,VALID,917.28,VALID,0,VALID,100,VALID,-0.0849042,VALID,20.92,VALID,56,VALID,0.699777,
2007-04-11, 02:48:00,VALID,917.267,VALID,0,VALID,100,VALID,-0.0679233,VALID,20.953,VALID,31,VALID,0.621951,
2007-04-11, 02:49:00,VALID,917.262,VALID,0.2,VALID,100,VALID,-0.0509425,VALID,20.953,VALID,35,VALID,0.491997,
2007-04-11, 02:50:00,VALID,917.241,VALID,0,VALID,100,VALID,-0.0679233,VALID,20.9468,VALID,39,VALID,0.398256,
2007-04-11, 02:51:00,VALID,917.226,VALID,0,VALID,100,VALID,-0.0679233,VALID,20.9592,VALID,34,VALID,0.597842,
2007-04-11, 02:52:00,VALID,917.205,VALID,0,VALID,100,VALID,-0.0849042,VALID,20.943,VALID,28,VALID,0.796875,
2007-04-11, 02:53:00,VALID,917.183,VALID,0,VALID,100,VALID,-0.0849042,VALID,20.9465,VALID,28,VALID,0.573718,
2007-04-11, 02:54:00,VALID,917.168,VALID,0.2,VALID,100,VALID,-0.0849042,VALID,20.9433,VALID,28,VALID,0.572115,
2007-04-11, 02:55:00,VALID,917.158,VALID,0,VALID,100,VALID,-0.0849042,VALID,20.9435,VALID,28,VALID,0.436719,
2007-04-11, 02:56:00,VALID,917.163,VALID,0,VALID,100,VALID,-0.0849042,VALID,20.93,VALID,6,VALID,0.693576,
2007-04-11, 02:57:00,VALID,917.162,VALID,0,VALID,100,VALID,-0.0509425,VALID,20.9105,VALID,359,VALID,0.65625,
2007-04-11, 02:58:00,VALID,917.149,VALID,0,VALID,100,VALID,-0.0849042,VALID,20.8843,VALID,340,VALID,0.762847,
2007-04-11, 02:59:00,VALID,917.13,VALID,0.2,VALID,100,VALID,-0.0679233,VALID,20.8913,VALID,359,VALID,0.484375,
2007-04-11, 03:00:00,VALID,917.119,VALID,0,VALID,100,VALID,-0.101885,VALID,20.9113,VALID,346,VALID,0.522195,
2007-04-11, 03:01:00,VALID,917.097,VALID,0,VALID,100,VALID,-0.0849042,VALID,20.9008,VALID,16,VALID,0.474432,
2007-04-11, 03:02:00,VALID,917.063,VALID,0,VALID,100,VALID,-0.0679233,VALID,20.9235,VALID,40,VALID,0.922247,
2007-04-11, 03:03:00,VALID,917.03,VALID,0.2,VALID,100,VALID,-0.0849042,VALID,20.9535,VALID,40,VALID,0.477834,
2007-04-11, 03:04:00,VALID,917,VALID,0,VALID,100,VALID,-0.0849042,VALID,20.9733,VALID,41,VALID,0.694141,
2007-04-11, 03:05:00,VALID,916.97,VALID,0,VALID,100,VALID,-0.101885,VALID,20.986,VALID,37,VALID,0.825462,
2007-04-11, 03:06:00,VALID,916.945,VALID,0,VALID,100,VALID,-0.101885,VALID,20.9722,VALID,30,VALID,0.598028,
2007-04-11, 03:07:00,VALID,916.926,VALID,0.2,VALID,100,VALID,-0.0849042,VALID,20.9857,VALID,33,VALID,0.695494,
2007-04-11, 03:08:00,VALID,916.918,VALID,0,VALID,100,VALID,-0.0849042,VALID,21.012,VALID,33,VALID,0.549733,
2007-04-11, 03:09:00,VALID,916.903,VALID,0,VALID,100,VALID,-0.0509425,VALID,21.0242,VALID,32,VALID,0.660065,
2007-04-11, 03:10:00,VALID,916.901,VALID,0,VALID,100,VALID,-0.0339617,VALID,21.0663,VALID,37,VALID,0.917383,
2007-04-11, 03:11:00,VALID,916.886,VALID,0,VALID,100,VALID,-0.0339617,VALID,21.0655,VALID,38,VALID,0.949219,
2007-04-11, 03:12:00,VALID,916.882,VALID,0.2,VALID,100,VALID,-0.0849042,VALID,21.0736,VALID,38,VALID,0.911644,
2007-04-11, 03:13:00,VALID,916.849,VALID,0,VALID,100,VALID,-0.0679233,VALID,21.0666,VALID,42,VALID,0.679688,
2007-04-11, 03:14:00,VALID,916.821,VALID,0,VALID,100,VALID,-0.0339617,VALID,21.0377,VALID,34,VALID,0.85957,
2007-04-11, 03:15:00,VALID,916.774,VALID,0,VALID,100,VALID,-0.0679233,VALID,21.0171,VALID,35,VALID,0.924479,
2007-04-11, 03:16:00,VALID,916.753,VALID,0,VALID,100,VALID,-0.0679233,VALID,21.0466,VALID,35,VALID,0.790698,
2007-04-11, 03:17:00,VALID,916.716,VALID,0,VALID,100,VALID,-0.101885,VALID,21.0371,VALID,36,VALID,0.573475,
2007-04-11, 03:18:00,VALID,916.705,VALID,0,VALID,100,VALID,-0.0339617,VALID,21.0206,VALID,37,VALID,0.9133,
2007-04-11, 03:19:00,VALID,916.68,VALID,0,VALID,100,VALID,-0.0849042,VALID,21.0309,VALID,40,VALID,0.706659,
2007-04-11, 03:20:00,VALID,916.663,VALID,0.2,VALID,100,VALID,-0.0679233,VALID,21.0106,VALID,41,VALID,0.380208,
2007-04-11, 03:21:00,VALID,916.672,VALID,0,VALID,100,VALID,-0.0169808,VALID,20.9949,VALID,41,VALID,0.119097,
2007-04-11, 03:22:00,VALID,916.661,VALID,0,VALID,100,VALID,-0.0509425,VALID,21.0049,VALID,35,VALID,0.111133,
2007-04-11, 03:23:00,VALID,916.647,VALID,0,VALID,100,VALID,-0.0509425,VALID,20.9917,VALID,227,VALID,0.237723,
2007-04-11, 03:24:00,VALID,916.653,VALID,0,VALID,100,VALID,0,VALID,20.9682,VALID,227,VALID,0.182478,
2007-04-11, 03:25:00,VALID,916.637,VALID,0,VALID,100,VALID,-0.0169808,VALID,20.9625,VALID,227,VALID,0.179142,
2007-04-11, 03:26:00,VALID,916.621,VALID,0,VALID,100,VALID,-0.0509425,VALID,20.9433,VALID,227,VALID,0,
2007-04-11, 03:27:00,VALID,916.605,VALID,0,VALID,100,VALID,-0.0509425,VALID,20.9338,VALID,227,VALID,0.00605469,
2007-04-11, 03:28:00,VALID,916.595,VALID,0,VALID,100,VALID,-0.0849042,VALID,20.9176,VALID,227,VALID,0.34811,
2007-04-11, 03:29:00,VALID,916.589,VALID,0,VALID,100,VALID,-0.0679233,VALID,20.9043,VALID,227,VALID,0.0354421,
2007-04-11, 03:30:00,VALID,916.564,VALID,0,VALID,100,VALID,-0.0509425,VALID,20.9135,VALID,227,VALID,0,
2007-04-11, 03:31:00,VALID,916.562,VALID,0,VALID,100,VALID,-0.0339617,VALID,20.9273,VALID,227,VALID,0.300781,
2007-04-11, 03:32:00,VALID,916.58,VALID,0,VALID,100,VALID,-0.0509425,VALID,20.936,VALID,227,VALID,0.56343,
2007-04-11, 03:33:00,VALID,916.572,VALID,0,VALID,100,VALID,-0.0169808,VALID,20.9619,VALID,294,VALID,0.662109,
2007-04-11, 03:34:00,VALID,916.569,VALID,0.2,VALID,100,VALID,-0.0509425,VALID,20.9755,VALID,31,VALID,0.843572,
2007-04-11, 03:35:00,VALID,916.565,VALID,0,VALID,100,VALID,-0.0679233,VALID,20.9495,VALID,44,VALID,0.927455,
2007-04-11, 03:36:00,VALID,916.565,VALID,0,VALID,100,VALID,-0.0509425,VALID,20.933,VALID,46,VALID,1.42653,
2007-04-11, 03:37:00,VALID,916.583,VALID,0,VALID,100,VALID,-0.0679233,VALID,20.9303,VALID,45,VALID,0.995139,
2007-04-11, 03:38:00,VALID,916.57,VALID,0,VALID,100,VALID,-0.0679233,VALID,20.8984,VALID,32,VALID,0.817042,
2007-04-11, 03:39:00,VALID,916.575,VALID,0,VALID,100,VALID,-0.0339617,VALID,20.8846,VALID,25,VALID,1.12639,
2007-04-11, 03:40:00,VALID,916.567,VALID,0,VALID,100,VALID,-0.0679233,VALID,20.894,VALID,21,VALID,1.02172,
2007-04-11, 03:41:00,VALID,916.56,VALID,0,VALID,100,VALID,-0.0679233,VALID,20.8946,VALID,17,VALID,1.04851,